XW-3 (CAS-9)

Last updated on Mon Sep 15 2025 00:03:09 GMT+0000 (Coordinated Universal Time)

1 50466U 21131B 25257.28659972 .00000402 00000+0 13895-3 0 9992 2 50466 98.5082 346.1618 0003961 190.5834 169.5272 14.40921524195372
UTC large
Height (km)
Speed (km/s)
/
Latitude / Longitude
Inclination (degrees)
Orbital Period (minutes)
Azimuth
Elevation
Range (km)
Doppler Factor

Next 0 passes for location: London (51.5072 / 0.1276)

Sorry there are no passes over London.